View from above orbital plane
|
View from above satellite
|
Ground track
|
The orbit data is extracted from the following two-line orbital elements,
1 16012U 85079B 21105.22536878 -.00000064 00000-0 -12922-4 0 9991
2 16012 74.0566 90.8135 0014782 0.4495 359.6668 14.36364514864514
Epoch (UTC): | 15 April 2021 05:24:31 |
Eccentricity: | 0.0014782 |
inclination: | 74.0566° |
perigee height: | 760 km |
apogee height: | 781 km |
right ascension of ascending node: | 90.8135° |
argument of perigee: | 0.4495° |
revolutions per day: | 14.36364514 |
mean anomaly at epoch: | 359.6668° |
orbit number at epoch: | 86451 |
The dashed part of the orbit path shows where the satellite is in the earth's shadow,
|
|